This is the latest recevied weather packets stored in our database for station/object N3TTT-13. If no packets are shown the sender has not sent any weather packets the latest 10 day(s).
| Time | Temp. | Humidity | Pressure | Rain* | Wind** | Luminosity | Snow |
|---|---|---|---|---|---|---|---|
| 1777486820 | 15° C | 72% | 1013.2 hPa | 0 mm | - | 263 W/m² | - |
| 1777486518 | 15° C | 72% | 1013 hPa | 0 mm | - | 154 W/m² | - |
| 1777486215 | 14.44° C | 73% | 1013.2 hPa | 0 mm | - | 113 W/m² | - |
| 1777485913 | 15° C | 72% | 1013.1 hPa | 0 mm | - | 68 W/m² | - |
| 1777485609 | 15° C | 72% | 1013.3 hPa | 0 mm | - | 76 W/m² | - |
| 1777485304 | 15° C | 71% | 1013.5 hPa | 0 mm | - | 85 W/m² | - |
| 1777485001 | 15.56° C | 72% | 1013.4 hPa | 0 mm | - | 129 W/m² | - |
| 1777484698 | 15.56° C | 73% | 1013.4 hPa | 0 mm | - | 143 W/m² | - |
| 1777484394 | 15.56° C | 72% | 1013.5 hPa | 0 mm | - | 146 W/m² | - |
| 1777484090 | 15.56° C | 72% | 1013.8 hPa | 0 mm | - | 139 W/m² | - |
| 1777483787 | 15.56° C | 73% | 1013.5 hPa | 0 mm | - | 116 W/m² | - |
| 1777483484 | 15.56° C | 72% | 1013.7 hPa | 0 mm | - | 121 W/m² | - |
| 1777483179 | 15.56° C | 73% | 1013.5 hPa | 0 mm | - | 146 W/m² | - |
| 1777482875 | 16.11° C | 71% | 1013.8 hPa | 0 mm | - | 194 W/m² | - |
| 1777482571 | 16.11° C | 71% | 1013.5 hPa | 0 mm | - | 253 W/m² | - |
| 1777482269 | 17.22° C | 69% | 1013.8 hPa | 0 mm | - | 269 W/m² | - |
| 1777481966 | 17.22° C | 69% | 1013.8 hPa | 0 mm | - | 277 W/m² | - |
| 1777481664 | 17.22° C | 68% | 1013.8 hPa | 0 mm | - | 286 W/m² | - |
| 1777481360 | 17.22° C | 68% | 1014.1 hPa | 0 mm | - | 313 W/m² | - |
| 1777481057 | 17.22° C | 67% | 1014 hPa | 0 mm | - | 251 W/m² | - |
| 1777480754 | 18.33° C | 66% | 1014.3 hPa | 0 mm | - | 241 W/m² | - |
| 1777480450 | 18.33° C | 62% | 1014.1 hPa | 0 mm | - | 314 W/m² | - |
| 1777480146 | 18.89° C | 60% | 1014.3 hPa | 0 mm | - | 292 W/m² | - |
| 1777479843 | 18.89° C | 55% | 1014.5 hPa | 0 mm | - | 548 W/m² | - |
| 1777479540 | 17.78° C | 59% | 1014.5 hPa | 0 mm | - | 323 W/m² | - |
* Rain latest hour (hover to see other rain measurements)
** Current wind speed in m/s (hover to see current wind gust speed)